Weather History for Keahole Point, HI

Change the Weather History Date:

Sunday, July 7, 2013

  Actual Average Record
Temperature  
Mean Temperature 78 °F -  
Max Temperature 82 °F 82 °F 93 °F (1986)
Min Temperature 73 °F 72 °F 70 °F (1991)
Cooling Degree Days 12    
Growing Degree Days 28 (Base 50)    
Moisture  
Dew Point 70 °F    
Average Humidity 73    
Maximum Humidity 83    
Minimum Humidity 65    
Precipitation  
Precipitation 0.06 in - - ()
Sea Level Pressure  
Sea Level Pressure 29.94 in    
Wind  
Wind Speed 5 mph (South)    
Max Wind Speed 12 mph    
Max Gust Speed -    
Visibility 10 miles    
Events Rain    
Averages and records for this station are not official NWS values.
T = Trace of Precipitation, MM = Missing Value Source: NWS Daily Summary

Daily Weather History Graph

Daily Weather History Graph

Search for Another Location

Airport:

Trip Planner

Search our weather history database for the weather conditions in past years. The results will help you decide how hot, cold, wet, or windy it might be!

Date:

Astronomy

Jul. 07, 2013 Rise Set
Actual Time 5:51 AM HST 7:07 PM HST
Civil Twilight 5:26 AM HST 7:31 PM HST
Nautical Twilight 4:57 AM HST 8:00 PM HST
Astronomical Twilight 4:28 AM HST 8:30 PM HST
Moon 5:28 AM HST (7/7) 6:48 PM HST (7/7)
Length of Visible Light 14h 04m
Length of Day
13h 16m
Waning Crescent, 0% of the Moon is Illuminated
Jul 7
Waning Crescent
Jul 7
New
Jul 15
First Quarter
Jul 22
Full
Jul 29
Last Quarter

Hourly Weather History & Observations

Time (HST) Temp. Heat Index Dew Point Humidity Pressure Visibility Wind Dir Wind Speed Gust Speed Precip Events Conditions
12:53 AM 75.9 °F - 70.0 °F 82% 29.98 in 10.0 mi SE 8.1 mph - N/A   Mostly Cloudy
1:53 AM 75.9 °F - 70.0 °F 82% 29.96 in 10.0 mi SSE 8.1 mph - N/A   Mostly Cloudy
2:53 AM 75.9 °F - 70.0 °F 82% 29.94 in 10.0 mi SE 3.5 mph - N/A   Scattered Clouds
3:53 AM 75.9 °F - 69.1 °F 79% 29.94 in 10.0 mi SE 3.5 mph - N/A   Overcast
4:43 AM 75.2 °F - 69.8 °F 83% 29.93 in 10.0 mi Calm Calm - N/A   Mostly Cloudy
4:53 AM 75.0 °F - 69.1 °F 82% 29.93 in 10.0 mi Calm Calm - N/A   Scattered Clouds
5:53 AM 73.0 °F - 66.9 °F 81% 29.94 in 10.0 mi ENE 3.5 mph - N/A   Clear
6:53 AM 75.9 °F - 66.9 °F 74% 29.94 in 10.0 mi Calm Calm - N/A   Clear
7:37 AM 77.0 °F - 69.8 °F 78% 29.95 in 10.0 mi Calm Calm - N/A   Mostly Cloudy
7:53 AM 77.0 °F - 69.1 °F 76% 29.96 in 10.0 mi Calm Calm - N/A   Mostly Cloudy
8:17 AM 80.6 °F 83.2 °F 68.0 °F 65% 29.95 in 10.0 mi Calm Calm - N/A   Scattered Clouds
8:53 AM 79.0 °F - 68.0 °F 69% 29.96 in 10.0 mi SW 5.8 mph - N/A   Partly Cloudy
9:25 AM 80.6 °F 83.9 °F 69.8 °F 70% 29.96 in 10.0 mi SW 8.1 mph - N/A   Mostly Cloudy
9:34 AM 80.6 °F 83.9 °F 69.8 °F 70% 29.96 in 10.0 mi South 8.1 mph - N/A   Scattered Clouds
9:53 AM 81.0 °F 84.4 °F 70.0 °F 69% 29.96 in 10.0 mi SSW 6.9 mph - N/A   Partly Cloudy
10:53 AM 82.0 °F 85.9 °F 70.0 °F 67% 29.96 in 10.0 mi South 11.5 mph - N/A   Partly Cloudy
11:53 AM 82.9 °F 87.0 °F 70.0 °F 65% 29.94 in 10.0 mi South 10.4 mph - N/A   Mostly Cloudy
12:53 PM 82.9 °F 87.0 °F 70.0 °F 65% 29.93 in 10.0 mi SSW 11.5 mph - N/A   Overcast
1:53 PM 82.9 °F 87.0 °F 70.0 °F 65% 29.92 in 10.0 mi South 9.2 mph - N/A   Overcast
2:53 PM 82.0 °F 85.9 °F 70.0 °F 67% 29.91 in 10.0 mi SSW 10.4 mph - N/A   Overcast
3:53 PM 82.9 °F 87.0 °F 70.0 °F 65% 29.90 in 10.0 mi SSW 10.4 mph - N/A   Mostly Cloudy
4:53 PM 81.0 °F 84.1 °F 69.1 °F 67% 29.89 in 10.0 mi South 8.1 mph - N/A   Overcast
5:53 PM 81.0 °F 84.4 °F 70.0 °F 69% 29.90 in 10.0 mi SW 8.1 mph - N/A   Overcast
6:53 PM 81.0 °F 84.1 °F 69.1 °F 67% 29.91 in 10.0 mi SSW 5.8 mph - N/A   Overcast
7:53 PM 80.1 °F 82.9 °F 69.1 °F 69% 29.93 in 10.0 mi SSW 5.8 mph - N/A   Overcast
8:53 PM 79.0 °F - 69.1 °F 72% 29.95 in 10.0 mi Calm Calm - N/A   Overcast
9:21 PM 78.8 °F - 69.8 °F 74% 29.95 in 10.0 mi East 5.8 mph - 0.00 in Rain Light Rain
9:53 PM 77.0 °F - 70.0 °F 79% 29.96 in 10.0 mi East 6.9 mph - 0.00 in Rain Light Rain
10:34 PM 77.0 °F - 71.6 °F 83% 29.96 in 10.0 mi Calm Calm - 0.01 in Rain Light Rain
10:53 PM 78.1 °F - 70.0 °F 76% 29.96 in 10.0 mi Calm Calm - 0.02 in Rain Light Rain
11:53 PM 77.0 °F - 71.1 °F 82% 29.96 in 10.0 mi Calm Calm - 0.04 in   Overcast